Dewpoint
-10 -11 -14 -19 -26 -30 -32 -31 -30 -23 -15 -18 -18 -15 -15 -12 -12 -18 -10 -9 -8 -6 -6 -6 -7 -7 -5 -5 -3 -6 -7 -6 -5 -4 -3 -3 -3 -4 -4 -4 -3 -4 -3 -4 -7 -7 -6 -6 -6 -5 -4 -4 -5 -4
-10 -11 -14 -18 -26 -29 -32 -31 -31 -30 -29 -20 -16 -17 -9 -8 -11 -13 -9 -8 -7 -7 -8 -10 -11 -10 -9 -9 -8 -8 -6 -5 -6 -4 -4 -5 -4 -5 -6 -4 -5 -4 -3 -5 -4 -5 -4 -4 -4 -6 -5 -5 -4 -5
-10 -10 -12 -17 -25 -28 -31 -31 -31 -30 -32 -24 -16 -15 -15 -11 -11 -12 -9 -8 -9 -8 -9 -11 -11 -10 -11 -10 -10 -10 -8 -8 -9 -8 -5 -5 -4 -5 -4 -4 -7 -6 -5 -4 -5 -4 -4 -4 -5 -6 -7 -7 -5 -5
-10 -10 -12 -16 -23 -28 -29 -31 -31 -31 -33 -30 -23 -14 -11 -8 -9 -10 -12 -10 -10 -8 -7 -8 -11 -11 -10 -10 -12 -11 -10 -10 -10 -10 -7 -4 -5 -6 -4 -5 -5 -4 -6 -5 -5 -5 -5 -5 -5 -5 -6 -6 -7 -7
-10 -10 -11 -14 -20 -27 -28 -30 -32 -33 -32 -30 -21 -13 -12 -13 -11 -13 -13 -11 -13 -10 -7 -8 -9 -12 -13 -12 -13 -14 -14 -12 -11 -10 -6 -4 -6 -7 -7 -7 -5 -5 -4 -5 -5 -5 -4 -6 -6 -5 -5 -5 -6 -7
-10 -9 -10 -13 -16 -25 -28 -29 -31 -33 -32 -32 -22 -14 -12 -11 -12 -10 -10 -9 -9 -10 -11 -5 -9 -9 -12 -13 -14 -15 -15 -13 -11 -10 -9 -8 -8 -7 -5 -7 -7 -7 -7 -6 -6 -7 -8 -8 -7 -6 -5 -5 -5 -6
-10 -9 -10 -12 -15 -20 -28 -28 -30 -31 -32 -33 -28 -21 -18 -14 -13 -24 -14 -11 -12 -12 -12 -9 -10 -9 -10 -11 -12 -12 -12 -13 -13 -13 -11 -11 -11 -10 -6 -7 -8 -9 -10 -9 -10 -10 -9 -8 -7 -7 -6 -5 -4 -5
-10 -9 -9 -11 -13 -17 -26 -28 -28 -30 -31 -32 -33 -32 -23 -16 -16 -26 -16 -12 -12 -12 -12 -8 -8 -10 -10 -12 -11 -9 -9 -11 -10 -10 -11 -10 -11 -10 -7 -10 -10 -10 -10 -10 -10 -10 -10 -8 -7 -7 -6 -6 -5 -4
-10 -9 -9 -10 -12 -14 -20 -28 -27 -28 -29 -28 -27 -28 -29 -29 -29 -21 -17 -16 -18 -17 -11 -9 -7 -5 -8 -9 -9 -9 -8 -5 -8 -7 -8 -10 -9 -9 -11 -11 -11 -11 -11 -12 -10 -11 -10 -9 -8 -7 -7 -6 -5 -4
-11 -10 -9 -9 -11 -13 -15 -23 -28 -28 -27 -25 -23 -28 -30 -24 -26 -28 -28 -28 -25 -19 -9 -9 -10 -7 -7 -7 -8 -11 -8 -5 -4 -7 -9 -6 -8 -15 -12 -12 -12 -11 -12 -11 -11 -11 -10 -9 -8 -7 -7 -7 -6 -5
-11 -10 -9 -9 -9 -12 -13 -17 -26 -28 -27 -26 -28 -27 -22 -24 -25 -26 -28 -21 -17 -15 -7 -8 -10 -9 -7 -5 -6 -7 -5 -7 -7 -6 -7 -6 -8 -10 -14 -14 -14 -13 -12 -11 -10 -10 -9 -9 -8 -8 -8 -7 -7 -6
-11 -10 -10 -9 -9 -10 -12 -13 -19 -27 -27 -27 -23 -22 -22 -21 -21 -27 -13 -10 -8 -16 -8 -8 -9 -11 -10 -7 -7 -7 -7 -8 -8 -8 -7 -7 -7 -12 -14 -15 -14 -12 -12 -10 -10 -10 -10 -9 -8 -7 -8 -7 -8 -7
-12 -10 -10 -9 -8 -8 -9 -11 -14 -22 -26 -24 -21 -22 -20 -15 -14 -19 -18 -9 -7 -10 -7 -8 -8 -11 -10 -8 -8 -8 -9 -9 -9 -6 -8 -9 -14 -12 -13 -14 -15 -13 -12 -11 -10 -11 -11 -9 -8 -7 -8 -9 -8 -8
-11 -10 -10 -10 -8 -8 -8 -9 -11 -13 -17 -17 -18 -18 -11 -10 -10 -14 -15 -14 -13 -10 -10 -9 -10 -8 -9 -9 -7 -10 -9 -9 -9 -8 -9 -7 -15 -13 -14 -15 -14 -14 -13 -12 -10 -13 -11 -10 -9 -8 -8 -8 -10 -10
-11 -10 -9 -9 -9 -7 -7 -8 -9 -11 -13 -12 -15 -12 -10 -15 -13 -14 -16 -11 -10 -9 -10 -10 -9 -9 -7 -7 -7 -9 -9 -8 -10 -9 -11 -15 -16 -13 -13 -15 -14 -13 -12 -12 -11 -13 -11 -10 -9 -9 -8 -7 -7 -7
-11 -8 -8 -10 -8 -7 -7 -7 -8 -9 -7 -7 -7 -6 -6 -8 -9 -9 -12 -10 -9 -10 -11 -10 -7 -6 -7 -7 -7 -8 -10 -10 -12 -11 -17 -15 -15 -14 -14 -14 -13 -13 -12 -12 -12 -12 -11 -10 -9 -8 -9 -9 -7 -7
-9 -5 -9 -8 -8 -7 -6 -7 -8 -10 -7 -5 -5 -6 -7 -8 -9 -11 -11 -10 -9 -10 -7 -8 -7 -8 -6 -6 -7 -8 -8 -9 -14 -19 -16 -14 -15 -15 -14 -13 -13 -13 -13 -13 -12 -11 -11 -11 -10 -9 -10 -9 -8 -7
-6 -9 -10 -8 -7 -4 -4 -5 -6 -6 -5 -5 -5 -5 -6 -7 -8 -9 -10 -9 -8 -9 -9 -8 -9 -6 -5 -7 -7 -8 -10 -14 -14 -13 -15 -16 -14 -14 -13 -12 -12 -12 -12 -11 -11 -11 -11 -11 -10 -10 -9 -8 -7 -7
-8 -10 -9 -8 -7 -5 -5 -5 -5 -5 -6 -5 -6 -5 -5 -6 -8 -9 -8 -9 -9 -9 -9 -9 -7 -6 -7 -9 -12 -14 -14 -14 -13 -13 -13 -14 -13 -13 -12 -12 -12 -12 -12 -11 -11 -11 -11 -11 -10 -10 -9 -9 -8 -7
-6 -9 -9 -8 -7 -8 -5 -4 -6 -5 -5 -7 -6 -6 -6 -6 -8 -8 -7 -7 -8 -7 -7 -6 -7 -10 -11 -12 -12 -13 -14 -15 -13 -13 -13 -13 -13 -12 -12 -12 -12 -12 -12 -11 -11 -11 -11 -11 -10 -10 -10 -10 -9 -9
-5 -6 -8 -6 -5 -7 -6 -5 -5 -5 -7 -7 -6 -6 -6 -7 -7 -6 -7 -6 -4 -5 -5 -8 -9 -10 -10 -10 -11 -11 -11 -12 -14 -14 -14 -13 -14 -13 -12 -12 -12 -11 -11 -10 -10 -10 -10 -10 -10 -10 -10 -10 -10 -10
-4 -5 -4 -4 -6 -7 -6 -7 -6 -6 -6 -4 -4 -5 -6 -6 -7 -8 -8 -5 -5 -6 -7 -8 -10 -10 -10 -11 -11 -10 -11 -10 -10 -11 -12 -13 -12 -12 -12 -13 -12 -11 -12 -12 -11 -11 -11 -11 -10 -10 -9 -9 -9 -9
-4 -4 -4 -5 -6 -7 -8 -7 -5 -5 -4 -4 -4 -4 -5 -5 -7 -9 -7 -8 -11 -12 -12 -12 -15 -13 -10 -11 -11 -11 -11 -9 -8 -9 -10 -11 -12 -12 -11 -11 -10 -10 -10 -11 -10 -9 -9 -11 -10 -8 -7 -7 -7 -8
-5 -4 -5 -5 -7 -5 -5 -5 -5 -5 -5 -4 -4 -4 -5 -5 -6 -5 -4 -8 -10 -11 -11 -12 -11 -9 -9 -8 -8 -10 -11 -11 -9 -9 -8 -8 -8 -9 -9 -9 -8 -8 -9 -9 -8 -8 -8 -9 -9 -7 -7 -8 -7 -7
-4 -4 -5 -5 -5 -5 -6 -5 -5 -5 -5 -4 -4 -5 -5 -6 -4 -4 -4 -8 -10 -10 -11 -11 -10 -10 -9 -9 -9 -10 -10 -10 -9 -9 -11 -10 -9 -8 -7 -8 -8 -9 -8 -8 -8 -8 -9 -9 -8 -8 -8 -8 -9 -8
-5 -4 -5 -5 -5 -6 -6 -6 -6 -7 -7 -6 -6 -8 -6 -4 -3 -4 -5 -9 -9 -10 -11 -10 -10 -9 -9 -9 -8 -9 -10 -9 -8 -8 -10 -8 -9 -9 -8 -8 -8 -10 -9 -9 -9 -9 -10 -9 -9 -9 -9 -10 -9 -8
-5 -5 -4 -5 -6 -7 -7 -8 -8 -9 -7 -8 -6 -5 -5 -5 -6 -7 -10 -12 -11 -12 -11 -10 -10 -10 -10 -10 -10 -9 -8 -8 -7 -8 -8 -8 -8 -8 -8 -8 -8 -10 -8 -8 -8 -8 -8 -8 -9 -9 -9 -9 -8 -7
-6 -5 -5 -5 -7 -9 -8 -7 -7 -7 -7 -8 -7 -6 -6 -5 -6 -11 -11 -13 -13 -13 -12 -11 -12 -12 -11 -10 -10 -9 -9 -9 -9 -9 -9 -9 -9 -8 -8 -7 -9 -9 -8 -8 -8 -8 -8 -6 -6 -7 -8 -8 -9 -9
-5 -6 -6 -6 -7 -8 -8 -8 -7 -8 -9 -8 -7 -6 -7 -10 -12 -11 -12 -13 -12 -12 -13 -12 -12 -12 -12 -12 -11 -11 -11 -10 -10 -10 -10 -10 -10 -10 -8 -8 -8 -8 -7 -7 -7 -6 -5 -5 -5 -6 -7 -8 -9 -10
-6 -7 -7 -6 -8 -7 -8 -9 -9 -9 -10 -11 -11 -11 -11 -11 -11 -11 -11 -11 -12 -12 -12 -11 -11 -11 -11 -11 -11 -11 -11 -10 -10 -10 -10 -10 -10 -10 -8 -7 -7 -8 -8 -8 -8 -7 -6 -6 -6 -6 -6 -9 -10 -11
-6 -7 -7 -7 -7 -8 -9 -9 -10 -10 -10 -10 -11 -10 -10 -10 -11 -10 -11 -11 -11 -11 -11 -12 -12 -12 -12 -11 -11 -11 -11 -11 -11 -11 -11 -10 -10 -10 -10 -9 -9 -7 -7 -7 -8 -9 -10 -11 -11 -10 -8 -8 -10 -10
-7 -7 -7 -7 -8 -8 -9 -9 -9 -9 -10 -10 -9 -9 -9 -8 -8 -9 -10 -10 -10 -11 -12 -12 -12 -13 -12 -12 -11 -11 -11 -10 -10 -10 -9 -9 -9 -9 -9 -9 -9 -9 -10 -10 -10 -10 -10 -10 -10 -10 -10 -11 -12 -12
-7 -7 -8 -7 -7 -7 -8 -8 -8 -8 -8 -8 -8 -8 -8 -8 -8 -10 -10 -11 -11 -12 -12 -12 -12 -12 -11 -11 -10 -10 -9 -9 -8 -8 -8 -8 -8 -8 -8 -8 -8 -8 -8 -8 -8 -8 -9 -9 -9 -9 -9 -9 -9 -9
Wind_Speed
20 18 17 16 15 14 14 13 12 13 14 16 18 16 12 15 10 16 34 33 34 29 22 22 23 21 15 8 4 8 1 7 5 5 3 3 5 4 2 5 4 8 4 5 5 6 7 19 11 10 7 14 20 23
21 19 18 17 16 15 15 14 13 12 11 11 10 12 16 23 22 12 25 26 27 25 23 25 24 27 28 20 9 14 4 0 4 3 2 3 6 4 5 4 9 7 6 4 4 4 2 9 7 13 14 13 19 22
22 20 19 18 17 16 16 15 13 12 11 11 11 12 17 13 10 19 27 27 23 20 26 28 23 17 18 23 19 8 9 8 9 7 4 3 7 1 3 6 5 6 9 3 2 4 5 9 12 17 21 22 21 21
23 21 20 19 18 16 16 15 14 12 11 12 13 14 17 20 17 17 8 14 9 8 6 15 21 23 20 14 20 21 20 22 22 19 10 3 4 6 4 5 4 2 4 4 5 4 3 10 12 14 19 23 28 28
24 22 21 20 18 17 16 15 15 13 12 12 14 16 18 9 6 8 7 10 4 4 7 12 17 19 21 18 16 17 21 22 22 14 8 4 4 4 3 2 6 5 2 3 4 3 2 9 12 12 16 21 24 29
25 23 21 20 19 18 16 16 15 14 13 12 13 14 13 12 12 13 7 14 20 17 4 3 8 12 10 12 15 20 25 22 13 5 4 5 4 1 2 4 4 5 4 3 3 8 8 11 11 13 14 19 21 25
27 24 23 21 20 19 17 16 16 14 13 13 12 12 12 11 11 1 3 15 6 4 3 3 3 3 4 5 8 8 8 6 5 8 6 5 7 5 2 2 1 4 5 6 8 8 7 9 11 12 12 13 15 20
29 26 24 22 20 19 18 17 16 15 14 12 11 11 10 9 7 2 6 11 8 4 3 4 1 3 1 1 1 6 4 3 6 4 3 2 2 2 1 2 1 1 3 4 6 7 8 9 9 10 11 12 14 17
30 28 26 24 22 20 19 18 16 16 14 12 11 11 9 5 3 4 8 8 5 1 4 2 3 3 3 2 2 2 2 2 2 2 2 1 1 2 6 7 5 3 1 3 5 9 10 11 11 11 14 15 14 15
32 29 27 25 23 21 19 19 18 16 15 15 13 4 4 6 6 7 3 3 4 3 2 3 4 1 3 3 2 2 3 1 1 1 1 0 1 5 14 11 8 6 2 1 2 5 7 9 11 12 13 13 12 11
34 31 29 26 24 22 20 19 19 18 16 13 5 3 6 9 6 3 2 1 1 1 4 4 5 5 2 1 2 2 1 1 0 1 1 1 2 8 16 14 12 10 6 4 1 4 4 8 8 8 12 11 12 12
37 33 30 28 25 24 21 19 19 20 14 10 6 8 7 4 2 2 0 1 2 2 6 6 6 5 4 3 2 1 1 0 1 2 0 2 3 10 20 17 13 11 8 7 3 3 4 6 8 7 11 9 13 12
39 35 32 29 27 25 23 20 19 17 15 12 4 3 3 2 3 5 5 2 2 6 9 9 6 4 4 2 4 1 1 2 0 1 2 4 8 13 16 17 14 12 11 8 6 3 4 6 7 8 10 10 11 11
40 37 34 31 28 25 24 22 21 18 14 4 6 1 3 2 4 4 3 3 4 6 15 16 8 3 3 3 2 2 1 0 1 2 5 4 17 14 14 16 15 13 12 10 7 4 4 6 8 7 8 10 12 12
41 38 35 32 29 27 25 23 21 21 6 4 5 4 5 4 3 5 7 4 6 13 21 11 6 4 2 3 1 2 1 3 4 4 3 9 18 15 15 15 15 13 10 10 8 5 4 8 8 7 6 8 11 13
43 37 38 35 31 29 26 23 22 18 3 4 5 3 4 3 5 7 11 8 12 22 14 4 4 2 2 3 3 6 3 5 3 5 6 14 16 14 13 13 11 10 9 9 8 7 8 10 9 8 6 6 9 12
48 35 44 38 34 30 26 23 16 8 6 5 5 11 9 3 6 10 12 9 18 22 5 4 4 4 5 2 3 4 5 2 6 7 10 13 14 13 11 10 10 10 9 8 8 10 10 10 11 10 8 6 9 11
47 44 45 42 38 32 27 13 10 8 7 8 6 10 16 8 6 12 14 14 21 17 9 3 7 3 4 4 3 5 11 9 6 6 9 13 13 14 13 11 9 10 11 11 12 12 11 11 11 9 8 10 12 12
50 48 47 45 43 27 12 11 7 6 11 5 11 8 10 10 13 11 15 15 18 18 8 8 4 4 4 8 8 5 7 11 11 9 9 10 13 13 13 13 14 14 14 14 14 13 11 12 14 14 16 18 19 18
44 43 46 43 38 13 9 7 11 5 7 10 10 12 8 6 12 17 15 18 21 10 8 6 8 11 10 8 5 5 7 6 12 13 13 13 13 14 15 16 16 16 17 17 17 17 18 18 18 18 19 20 22 21
39 38 42 43 28 9 7 9 9 7 8 9 12 13 6 11 12 12 22 23 14 8 9 24 28 30 26 25 22 19 16 14 16 21 20 16 16 16 14 12 13 14 15 18 20 21 22 24 22 19 19 20 20 20
41 45 44 35 14 11 8 10 5 8 8 5 11 12 5 7 9 15 14 16 12 24 28 32 39 39 38 39 41 38 36 30 27 26 26 25 24 23 23 22 22 22 23 23 24 25 26 25 23 22 22 19 17 18
51 42 34 15 7 12 7 15 10 10 7 9 11 7 4 6 9 13 9 13 24 35 35 39 45 45 44 42 42 42 40 38 38 38 35 34 34 33 32 32 31 30 29 29 28 28 28 27 25 25 24 24 24 23
44 24 13 14 13 10 11 11 11 9 7 7 6 3 4 8 8 8 4 15 32 29 31 34 34 37 36 37 40 41 40 39 40 41 41 40 41 41 39 40 38 37 36 34 33 32 30 28 27 28 28 29 28 28
13 12 11 9 15 11 7 8 9 8 5 6 6 4 5 9 3 4 4 13 31 36 37 35 35 37 39 40 40 39 34 34 34 36 39 42 41 41 43 42 40 40 38 37 38 37 37 34 33 34 33 31 30 32
7 13 15 22 13 8 9 6 6 5 5 6 8 8 10 4 4 6 4 20 31 32 31 29 26 27 31 32 34 34 32 30 28 30 33 32 32 33 34 35 35 37 34 32 34 36 35 34 33 32 32 31 30 29
10 7 13 13 14 17 9 13 15 15 6 6 6 6 4 5 6 6 17 24 30 27 22 21 19 19 22 21 19 18 18 19 20 21 20 21 24 25 27 30 33 33 29 26 26 28 30 29 28 28 28 27 26 26
10 14 11 20 15 21 7 10 6 8 5 11 17 7 8 8 7 14 6 5 3 1 4 7 7 6 6 7 7 6 8 9 10 13 17 21 25 28 30 28 27 29 28 26 26 26 27 26 23 24 26 27 26 24
8 24 27 19 15 11 13 8 11 13 19 20 13 8 9 21 24 13 6 9 8 8 9 9 6 6 6 7 8 8 8 8 10 12 14 16 15 14 15 19 20 22 23 24 24 25 25 25 24 24 24 24 24 23
14 31 10 17 7 6 12 22 25 24 29 34 36 22 29 27 20 19 19 20 18 14 8 8 10 11 11 13 13 12 12 14 16 17 18 16 13 10 7 7 10 12 14 16 19 21 24 26 27 28 28 27 27 28
26 21 9 10 9 17 18 25 25 32 32 36 39 35 38 26 25 25 26 27 25 22 22 25 27 26 26 26 24 23 24 22 23 22 20 18 15 13 11 9 9 13 15 16 16 17 17 19 21 24 27 29 30 30
21 17 14 4 5 22 20 26 27 30 32 36 32 35 32 28 28 31 33 29 29 32 32 31 31 30 26 25 24 23 22 21 20 19 19 20 21 20 18 17 16 17 18 19 19 20 20 20 21 22 23 25 27 29
15 21 21 11 9 16 20 24 15 12 20 23 23 30 32 29 21 23 17 19 23 24 24 23 22 21 20 18 18 18 17 16 15 15 15 16 17 17 17 18 19 20 22 23 24 25 26 27 29 30 31 31 31 31
Wind_Direction
169 163 159 155 151 148 144 138 127 118 117 107 101 97 106 122 103 111 96 92 89 87 71 60 48 34 21 16 12 331 26 11 29 59 63 37 43 36 45 31 356 19 17 20 32 61 41 348 350 32 327 335 342 353
169 165 161 159 156 153 150 144 135 123 120 129 127 115 104 123 115 95 98 93 85 83 77 66 61 54 44 36 30 36 87 58 46 105 71 92 61 44 31 49 3 50 34 48 46 86 334 356 1 29 20 5 358 5
170 169 165 163 161 157 155 151 144 129 118 125 122 114 137 150 119 119 110 107 97 81 64 63 58 56 49 47 58 66 39 53 63 76 110 107 79 96 50 41 78 56 49 64 119 20 349 14 27 30 28 25 19 15
173 172 169 166 164 162 158 156 152 144 131 122 131 124 127 130 124 134 97 110 101 76 77 64 67 60 58 59 66 70 77 74 73 73 63 73 92 53 64 81 59 352 353 57 77 35 26 23 18 14 23 26 27 30
176 174 172 168 168 165 161 159 156 151 146 130 137 148 151 155 123 130 112 129 356 105 121 96 74 72 70 73 78 84 85 76 68 69 65 62 67 94 90 102 49 6 37 71 73 312 277 348 0 3 15 25 27 26
179 175 174 171 171 168 164 161 158 156 155 144 143 145 149 148 136 111 82 96 109 113 88 74 81 85 79 64 72 71 72 73 72 59 64 54 36 89 83 82 3 24 24 23 3 12 20 27 13 13 14 20 25 30
180 177 177 174 172 171 168 164 161 162 159 153 150 151 157 164 171 77 139 151 141 103 97 98 100 90 106 66 54 56 62 70 71 67 65 66 38 50 60 82 351 50 58 58 54 38 30 35 33 24 26 24 24 29
181 178 178 175 174 173 171 167 164 165 161 155 158 165 169 173 189 337 146 164 158 114 100 115 127 133 122 119 68 23 30 47 43 90 99 101 94 66 110 238 302 88 46 56 57 43 27 23 35 44 40 27 23 28
182 180 179 176 175 174 172 170 167 167 163 152 142 144 142 160 145 146 152 167 191 168 133 120 147 199 149 119 56 22 30 63 10 75 78 155 158 192 174 186 187 177 81 23 14 9 5 16 17 18 23 20 22 21
184 181 179 177 176 174 173 173 170 166 162 155 147 136 143 147 138 138 139 177 190 190 162 132 147 129 150 128 66 17 33 58 91 45 315 266 236 177 176 178 173 180 176 121 52 359 354 1 360 3 15 17 18 16
185 183 180 178 176 174 173 173 171 164 162 156 166 130 141 148 149 158 156 122 234 166 186 147 159 133 141 118 135 65 132 41 107 117 305 264 242 206 189 195 189 196 196 175 242 338 348 4 359 8 8 16 18 10
186 184 181 179 177 176 174 172 170 168 161 159 144 125 138 158 123 120 331 297 225 226 174 152 144 125 131 129 112 147 96 108 236 338 356 247 240 179 186 187 195 211 220 221 272 333 343 1 16 9 9 12 8 9
187 185 182 180 178 175 175 173 169 167 155 144 150 158 154 135 64 166 197 223 239 181 172 156 129 134 125 135 91 125 132 241 297 24 244 233 183 179 189 194 201 218 227 236 251 294 339 340 346 355 9 11 8 8
188 185 183 182 179 176 174 174 173 166 158 147 156 216 181 207 233 190 182 177 172 172 163 148 119 118 124 122 135 136 137 148 310 238 233 221 190 179 184 191 202 213 225 232 236 245 302 311 344 343 4 12 14 10
188 185 184 183 180 177 176 176 176 175 175 165 173 201 205 220 196 178 180 165 161 158 154 127 94 121 111 111 204 122 131 245 229 235 238 192 178 184 191 196 202 213 224 225 234 241 288 291 319 331 335 357 4 7
186 183 189 183 180 180 177 174 175 180 216 207 213 179 180 180 213 198 186 173 163 157 152 141 127 117 172 147 172 207 192 225 238 218 211 171 176 184 193 202 207 217 224 220 234 253 279 282 296 312 313 340 355 356
187 183 184 182 179 177 175 171 168 192 211 217 224 209 195 208 212 199 188 179 169 167 172 147 159 190 124 171 217 193 218 232 232 194 178 183 190 189 191 203 214 218 219 226 247 266 283 277 279 291 297 313 334 340
188 187 183 178 174 169 171 168 180 201 221 217 210 205 202 201 192 192 191 181 173 183 179 188 143 185 202 201 217 228 234 239 222 196 197 200 197 199 203 209 218 229 239 253 267 273 270 269 276 286 290 296 304 315
189 187 183 179 175 159 164 186 189 205 212 205 216 206 199 209 212 204 203 194 187 186 187 175 202 197 208 211 237 256 239 220 215 218 208 201 202 213 223 230 237 244 249 253 259 266 270 270 273 279 283 286 292 295
186 187 184 179 173 168 162 171 182 198 198 202 200 203 202 197 208 209 206 198 193 179 196 215 216 208 201 223 239 249 243 240 230 227 224 223 230 237 241 246 251 254 253 253 257 261 266 271 275 282 286 287 288 291
176 182 180 178 179 188 187 164 178 198 184 194 200 195 194 211 207 206 211 207 195 204 226 225 237 243 244 251 255 257 260 257 253 241 245 248 243 236 233 248 261 263 264 263 262 262 265 270 278 281 281 282 285 285
167 174 169 176 190 200 215 187 166 182 183 171 172 181 186 193 202 220 217 196 216 226 230 234 244 249 249 250 252 253 258 259 259 256 255 251 244 235 243 262 276 271 270 270 270 270 271 269 269 267 273 276 279 285
163 164 168 166 176 194 213 195 171 186 176 177 166 174 202 205 218 218 216 226 242 243 246 251 260 259 257 263 261 261 259 257 256 255 253 252 254 254 258 264 271 271 271 271 275 275 275 272 266 263 266 268 270 271
161 156 159 167 187 185 166 183 181 172 160 164 167 185 198 204 193 212 232 231 246 252 254 258 260 255 255 256 256 259 259 258 256 255 256 255 255 258 260 264 267 267 268 272 274 271 269 267 262 260 265 269 268 265
150 170 177 193 185 166 167 158 160 186 171 169 172 205 187 184 212 234 216 243 254 256 259 261 261 257 256 260 264 262 261 261 258 257 256 256 258 261 263 265 266 265 265 265 265 265 266 266 264 267 270 267 266 261
184 184 193 181 161 163 167 145 167 150 134 165 199 185 176 185 231 247 228 240 249 258 261 260 263 264 261 258 260 263 261 262 260 257 259 262 262 260 264 267 268 266 263 262 264 266 265 263 264 265 265 266 265 263
173 184 186 180 171 151 144 177 165 173 167 168 152 147 148 211 238 250 245 265 262 270 269 264 264 260 263 265 261 265 266 263 260 264 268 263 260 260 258 260 264 270 271 266 260 260 262 262 261 262 263 261 259 258
177 163 163 159 160 174 144 151 154 181 180 171 158 174 186 201 223 217 186 126 91 292 221 226 230 240 241 236 227 213 217 233 248 263 273 273 272 271 267 267 268 268 269 266 259 255 256 258 258 259 259 260 261 259
147 153 148 167 154 189 187 171 185 181 176 172 176 196 216 222 234 225 206 222 233 231 216 208 200 207 188 192 205 214 226 245 263 276 289 300 311 306 289 264 261 270 271 263 256 253 252 253 255 260 263 263 262 257
164 163 146 174 170 191 192 188 191 194 193 196 202 221 230 235 240 243 239 235 237 239 243 225 213 230 244 258 262 262 263 266 278 284 286 289 304 313 305 272 260 262 259 255 253 252 250 251 253 255 258 259 259 259
158 171 147 162 191 196 190 192 188 193 201 205 214 222 236 245 250 254 252 251 253 256 260 263 262 263 269 270 271 274 276 278 282 284 285 282 278 278 280 280 268 252 252 254 255 257 260 262 263 264 264 265 266 267
165 173 147 126 149 177 185 180 188 191 200 208 219 226 236 244 254 263 255 254 257 261 260 260 263 262 262 270 276 279 279 278 276 274 272 268 265 264 267 266 262 258 255 255 261 266 269 271 272 274 276 276 276 276
165 168 172 136 135 167 178 178 183 183 202 211 220 226 233 236 240 246 259 253 254 263 267 268 270 274 279 280 275 271 269 270 271 268 266 264 262 259 256 255 256 256 256 256 258 261 263 265 268 270 273 275 276 276
Height
1513 1517 1520 1524 1526 1529 1531 1533 1535 1537 1538 1539 1540 1541 1541 1543 1543 1544 1544 1547 1548 1549 1554 1553 1552 1550 1547 1546 1544 1542 1541 1540 1540 1544 1550 1558 1558 1563 1561 1565 1564 1558 1553 1557 1555 1562 1573 1567 1561 1553 1562 1555 1546 1537
1513 1517 1521 1524 1527 1530 1533 1535 1537 1538 1540 1542 1543 1545 1546 1547 1548 1548 1547 1551 1552 1553 1558 1557 1557 1555 1554 1550 1547 1546 1549 1548 1548 1551 1556 1557 1562 1563 1563 1566 1565 1567 1570 1567 1569 1574 1575 1571 1567 1564 1560 1555 1548 1540
1513 1518 1521 1525 1528 1530 1533 1536 1539 1540 1542 1544 1545 1546 1548 1550 1552 1552 1552 1556 1556 1557 1561 1560 1561 1562 1560 1556 1552 1551 1551 1551 1552 1553 1556 1562 1568 1572 1570 1574 1571 1572 1572 1572 1574 1576 1574 1571 1568 1564 1560 1556 1550 1544
1513 1518 1522 1525 1528 1531 1534 1537 1540 1542 1544 1545 1547 1549 1551 1553 1555 1557 1557 1558 1559 1560 1564 1569 1568 1564 1565 1563 1561 1559 1558 1557 1556 1557 1558 1564 1566 1574 1576 1578 1576 1578 1576 1576 1577 1576 1574 1572 1569 1566 1563 1558 1552 1546
1513 1518 1522 1525 1529 1532 1535 1538 1540 1543 1545 1547 1549 1552 1554 1555 1557 1558 1559 1560 1560 1564 1566 1570 1571 1571 1570 1569 1566 1566 1564 1562 1562 1562 1567 1571 1574 1576 1580 1580 1580 1581 1581 1579 1579 1578 1577 1573 1569 1567 1564 1560 1555 1549
1513 1517 1522 1525 1528 1532 1535 1538 1541 1544 1546 1548 1550 1553 1555 1557 1559 1559 1562 1564 1564 1566 1567 1571 1574 1575 1574 1574 1572 1571 1570 1568 1568 1569 1572 1575 1576 1577 1579 1581 1584 1582 1581 1581 1580 1578 1576 1575 1572 1569 1565 1562 1558 1554
1512 1516 1521 1525 1528 1532 1535 1538 1541 1544 1547 1549 1552 1554 1556 1558 1560 1561 1562 1565 1566 1567 1569 1573 1574 1576 1576 1575 1574 1574 1574 1574 1574 1575 1578 1577 1577 1577 1581 1582 1583 1583 1582 1581 1580 1579 1579 1577 1576 1572 1569 1566 1562 1557
1510 1515 1520 1524 1528 1532 1535 1538 1542 1545 1548 1550 1552 1555 1557 1559 1561 1562 1563 1565 1566 1567 1569 1572 1575 1575 1576 1576 1576 1575 1575 1575 1576 1577 1579 1580 1580 1581 1582 1582 1582 1583 1582 1581 1580 1579 1578 1577 1576 1574 1571 1567 1564 1560
1509 1514 1519 1523 1527 1531 1535 1538 1542 1545 1548 1551 1553 1555 1558 1560 1562 1563 1564 1566 1567 1570 1568 1570 1573 1576 1575 1576 1576 1577 1576 1577 1578 1578 1580 1581 1580 1580 1579 1580 1581 1581 1581 1580 1579 1578 1577 1575 1574 1573 1570 1568 1565 1561
1507 1512 1517 1522 1526 1531 1534 1538 1541 1545 1548 1552 1555 1556 1558 1559 1561 1564 1566 1566 1567 1567 1567 1568 1571 1573 1575 1575 1577 1578 1577 1579 1578 1581 1579 1578 1575 1575 1577 1578 1579 1580 1580 1580 1580 1579 1577 1575 1573 1572 1570 1569 1567 1563
1505 1511 1516 1521 1525 1530 1534 1538 1541 1544 1548 1552 1555 1556 1558 1560 1562 1563 1564 1566 1567 1567 1566 1567 1569 1572 1575 1575 1576 1578 1579 1580 1579 1580 1578 1577 1572 1571 1573 1575 1577 1578 1578 1579 1579 1578 1577 1576 1574 1572 1569 1567 1565 1563
1503 1509 1514 1520 1524 1529 1534 1538 1541 1543 1547 1551 1554 1556 1559 1560 1561 1563 1567 1567 1566 1564 1564 1566 1569 1571 1574 1575 1576 1579 1578 1580 1576 1580 1578 1573 1566 1566 1569 1572 1574 1575 1576 1577 1577 1577 1576 1575 1573 1571 1569 1566 1564 1562
1500 1507 1513 1518 1524 1527 1533 1538 1541 1544 1547 1551 1554 1556 1556 1560 1564 1562 1568 1565 1564 1561 1562 1564 1569 1571 1574 1575 1577 1578 1578 1579 1579 1579 1572 1564 1561 1563 1566 1568 1571 1572 1573 1574 1575 1575 1575 1574 1573 1571 1569 1567 1565 1563
1498 1505 1512 1518 1522 1527 1532 1537 1540 1543 1547 1548 1551 1556 1556 1558 1554 1552 1553 1553 1555 1557 1560 1563 1566 1569 1573 1574 1576 1577 1579 1579 1579 1576 1563 1556 1556 1560 1562 1565 1568 1569 1570 1571 1572 1572 1573 1572 1572 1570 1569 1567 1564 1562
1496 1504 1511 1516 1521 1526 1530 1536 1540 1544 1545 1546 1547 1551 1550 1548 1548 1548 1550 1552 1554 1556 1560 1564 1567 1569 1572 1575 1576 1577 1579 1577 1569 1559 1553 1550 1554 1558 1560 1562 1564 1566 1567 1568 1569 1570 1570 1570 1569 1568 1567 1565 1564 1561
1494 1503 1506 1513 1519 1524 1528 1535 1539 1543 1544 1544 1543 1544 1544 1546 1547 1547 1548 1550 1553 1556 1561 1563 1566 1569 1568 1570 1572 1573 1570 1563 1552 1551 1548 1550 1553 1556 1558 1560 1562 1563 1564 1566 1566 1567 1567 1567 1566 1566 1565 1563 1562 1560
1487 1489 1499 1508 1516 1522 1528 1534 1538 1541 1541 1539 1537 1537 1539 1540 1542 1544 1546 1548 1551 1555 1557 1560 1564 1563 1568 1567 1566 1564 1558 1549 1546 1546 1548 1550 1553 1555 1556 1558 1560 1561 1562 1563 1564 1564 1564 1564 1563 1563 1562 1561 1560 1558
1479 1487 1496 1504 1511 1520 1526 1530 1534 1534 1533 1533 1533 1533 1535 1537 1538 1541 1543 1545 1548 1551 1553 1555 1557 1561 1561 1557 1554 1548 1546 1546 1546 1547 1548 1549 1551 1553 1554 1555 1557 1558 1559 1560 1560 1561 1561 1561 1560 1560 1559 1558 1557 1556
1476 1483 1492 1499 1506 1516 1523 1526 1528 1527 1527 1528 1530 1530 1531 1533 1536 1538 1540 1542 1544 1547 1550 1551 1551 1550 1548 1546 1544 1543 1543 1544 1545 1546 1547 1547 1549 1550 1551 1552 1553 1554 1555 1556 1556 1556 1557 1556 1556 1555 1555 1554 1553 1552
1477 1485 1491 1500 1508 1513 1518 1520 1522 1522 1523 1523 1525 1527 1528 1528 1530 1534 1537 1539 1541 1544 1545 1543 1537 1534 1536 1538 1540 1541 1542 1542 1543 1544 1544 1545 1546 1546 1547 1548 1548 1549 1549 1550 1550 1551 1551 1551 1550 1550 1549 1548 1547 1546
1477 1485 1495 1501 1507 1509 1509 1510 1513 1515 1516 1518 1518 1521 1523 1524 1527 1529 1531 1535 1537 1535 1531 1528 1528 1530 1533 1534 1535 1536 1537 1539 1539 1540 1540 1541 1541 1541 1542 1543 1544 1544 1544 1544 1544 1544 1544 1544 1544 1544 1543 1542 1541 1540
1466 1480 1491 1500 1503 1505 1504 1504 1507 1510 1514 1513 1515 1518 1519 1520 1521 1523 1525 1526 1525 1521 1517 1518 1517 1520 1523 1525 1524 1526 1529 1531 1532 1532 1533 1534 1534 1534 1535 1537 1537 1537 1537 1537 1537 1537 1537 1537 1537 1537 1536 1535 1535 1533
1464 1476 1485 1493 1499 1499 1499 1501 1503 1506 1509 1509 1512 1514 1514 1514 1514 1515 1514 1511 1509 1506 1508 1508 1506 1507 1509 1512 1515 1515 1518 1519 1520 1521 1523 1524 1524 1525 1526 1527 1528 1527 1527 1527 1528 1528 1528 1528 1528 1528 1528 1528 1527 1526
1463 1470 1477 1484 1486 1490 1492 1493 1496 1499 1501 1504 1507 1508 1508 1508 1508 1508 1503 1498 1495 1498 1497 1496 1497 1499 1500 1501 1501 1501 1503 1506 1508 1509 1510 1512 1512 1512 1515 1514 1516 1516 1516 1517 1517 1517 1517 1517 1518 1518 1518 1518 1517 1517
1456 1467 1471 1470 1472 1476 1479 1482 1486 1490 1493 1496 1499 1500 1500 1503 1503 1497 1490 1484 1484 1484 1486 1487 1488 1487 1487 1487 1488 1489 1492 1493 1494 1496 1496 1498 1501 1502 1500 1502 1503 1503 1505 1505 1503 1505 1505 1506 1507 1507 1507 1506 1506 1506
1443 1445 1448 1448 1456 1460 1463 1471 1475 1480 1484 1490 1490 1492 1495 1497 1498 1487 1478 1470 1470 1473 1475 1475 1476 1475 1474 1475 1477 1478 1479 1483 1486 1486 1484 1487 1489 1489 1489 1489 1489 1488 1492 1494 1493 1491 1492 1494 1495 1495 1495 1495 1496 1496
1426 1427 1431 1435 1439 1443 1454 1460 1467 1471 1476 1479 1481 1487 1490 1492 1487 1473 1461 1458 1461 1462 1465 1467 1468 1467 1466 1467 1469 1471 1472 1474 1476 1477 1478 1478 1478 1479 1479 1478 1477 1478 1482 1483 1483 1481 1481 1482 1483 1484 1485 1485 1486 1487
1408 1414 1420 1427 1433 1438 1443 1449 1456 1461 1460 1464 1471 1477 1476 1472 1465 1457 1454 1455 1457 1459 1460 1460 1461 1461 1461 1462 1464 1466 1468 1469 1470 1471 1470 1470 1470 1469 1469 1470 1470 1470 1471 1472 1472 1473 1472 1473 1474 1475 1476 1476 1477 1478
1397 1403 1414 1421 1427 1430 1430 1432 1435 1439 1445 1450 1456 1458 1451 1447 1450 1451 1451 1453 1454 1456 1457 1458 1458 1459 1460 1461 1462 1464 1465 1466 1467 1466 1465 1464 1463 1462 1460 1460 1461 1462 1462 1462 1463 1464 1465 1466 1467 1468 1468 1468 1469 1470
1389 1395 1401 1410 1413 1414 1414 1420 1427 1435 1439 1442 1443 1442 1442 1441 1443 1446 1447 1449 1451 1453 1454 1455 1455 1455 1456 1457 1458 1460 1461 1461 1461 1461 1460 1459 1458 1457 1456 1455 1455 1455 1455 1455 1456 1457 1458 1458 1459 1459 1460 1460 1461 1461
1383 1390 1394 1400 1405 1407 1411 1417 1422 1428 1432 1436 1437 1436 1433 1438 1439 1439 1441 1442 1444 1445 1447 1448 1449 1449 1449 1449 1451 1453 1453 1454 1453 1453 1453 1452 1452 1452 1452 1452 1451 1451 1450 1450 1450 1451 1451 1451 1452 1452 1453 1453 1453 1454
1377 1381 1387 1396 1400 1405 1412 1414 1418 1422 1426 1428 1428 1430 1432 1433 1431 1429 1429 1433 1435 1435 1434 1436 1437 1437 1440 1442 1443 1443 1443 1443 1443 1444 1444 1443 1444 1445 1445 1446 1446 1446 1445 1445 1446 1446 1446 1446 1446 1446 1445 1445 1445 1445
1373 1377 1382 1388 1395 1400 1405 1410 1412 1417 1419 1421 1421 1421 1423 1425 1422 1419 1419 1420 1421 1422 1424 1426 1428 1430 1432 1433 1433 1434 1434 1435 1435 1435 1435 1436 1436 1437 1437 1437 1438 1438 1438 1438 1439 1439 1439 1438 1438 1438 1437 1437 1436 1436